RH
9 9 9 9 9 10 11 12 12 13 12 12 12 12 12 13 13 12 12 11 11 10 9 7 6 6 8 9 11 10 10 9 10 11 12 13 16 18 17 20 23 25 27 27 32 39 43 47 51 56 65 68 70 72 75 77 81 85 81 84 85 83 83 80 80 77 71 66 61 59 61 59 58 59 56 52 56 58 58 54 55 59 51 45 42 37 37 38
9 8 8 8 8 8 9 10 11 12 12 12 12 12 12 12 12 12 12 11 11 11 11 9 7 6 6 8 9 10 10 9 9 10 11 13 16 16 15 17 20 24 26 26 31 39 44 47 50 58 66 69 73 75 75 79 83 84 83 84 83 81 81 79 75 72 70 65 60 60 57 58 63 59 53 53 55 56 55 52 53 56 50 43 38 36 36 37
9 9 8 7 6 6 7 7 9 10 11 12 12 12 12 12 12 12 12 12 11 11 11 11 10 8 7 7 7 9 9 9 11 12 13 15 16 15 13 15 18 22 24 26 31 39 45 50 55 62 68 72 76 76 76 81 81 80 83 84 80 79 81 78 73 72 71 65 61 59 54 56 59 55 55 56 54 54 53 53 52 49 44 38 36 36 35 36
9 9 8 7 6 5 6 6 7 8 9 9 10 11 11 11 11 11 12 12 12 12 11 11 11 10 9 7 7 8 8 11 15 16 16 15 15 14 13 13 16 19 23 27 32 38 43 49 57 64 69 73 77 77 77 81 79 78 83 83 78 76 79 79 76 76 72 68 66 61 58 57 53 56 61 56 54 56 56 58 50 41 39 36 36 35 33 38
9 9 8 6 5 5 5 5 6 7 7 8 9 10 10 11 10 11 11 12 12 12 12 11 11 10 10 9 8 7 7 13 18 18 16 14 14 14 12 12 15 17 21 27 32 36 40 46 53 60 69 75 78 77 77 81 78 79 82 82 80 77 80 79 76 75 69 68 69 65 64 60 52 56 60 57 57 56 56 58 49 38 37 35 35 35 34 39
10 9 8 7 6 5 5 6 6 7 8 8 9 9 10 10 9 9 9 10 12 12 13 13 12 10 10 11 10 8 10 13 16 18 15 12 14 13 11 11 13 16 20 27 32 34 37 44 49 55 67 73 75 74 75 79 78 79 82 83 83 80 81 79 75 75 68 66 66 65 65 58 54 58 58 60 59 53 53 56 49 38 36 35 34 33 36 41
10 9 8 8 7 7 7 7 8 8 9 10 10 10 10 10 10 9 8 8 9 11 13 14 14 12 10 11 11 12 13 12 13 18 14 10 12 12 11 11 12 15 21 27 31 34 36 42 47 53 65 71 74 76 74 77 80 81 81 82 83 82 84 81 79 78 75 73 67 67 67 57 57 59 58 61 57 51 52 54 49 39 37 37 33 34 38 41
10 10 9 9 8 8 9 9 10 10 11 11 11 11 11 10 10 9 8 7 7 9 11 14 15 14 13 10 13 17 17 17 16 15 12 9 10 10 10 12 12 15 21 27 29 34 37 40 45 53 64 70 76 78 74 76 81 82 81 80 81 85 87 87 85 80 79 80 75 71 65 59 59 55 56 59 53 51 51 52 47 38 38 38 33 37 40 42
10 11 10 10 10 10 10 11 11 11 12 12 12 10 10 10 10 9 8 7 7 8 9 12 14 16 15 11 14 18 18 21 19 12 9 8 8 7 8 11 12 14 21 26 27 33 37 37 43 53 63 69 72 74 71 73 77 80 81 79 81 87 88 87 86 79 77 79 78 74 63 60 61 53 57 57 50 51 51 51 47 39 38 38 36 39 42 46
9 11 11 11 11 11 12 12 12 12 12 12 12 10 9 10 10 9 8 7 7 8 8 9 12 15 17 16 17 19 18 19 18 13 9 7 6 6 7 11 13 15 21 25 26 31 36 35 40 51 61 66 68 69 69 68 72 80 83 81 84 90 88 84 84 81 78 77 75 73 66 63 56 50 57 56 51 52 49 50 48 43 40 38 40 40 45 49
10 12 12 11 12 12 13 13 12 12 13 13 13 10 8 9 9 9 8 8 8 8 9 8 10 12 16 20 21 20 18 17 17 15 10 6 6 5 7 12 14 16 21 25 25 29 33 34 37 49 60 65 66 66 66 65 70 82 86 84 84 88 89 85 87 87 80 77 76 73 69 65 56 50 56 55 52 50 47 48 47 44 41 40 41 42 47 51
10 12 12 12 12 13 13 12 12 13 13 13 12 10 9 9 9 8 7 8 9 9 9 9 10 10 13 20 21 20 19 17 17 15 12 8 6 6 8 12 15 16 20 24 26 27 30 32 33 43 54 62 65 63 65 67 69 79 87 88 85 85 89 88 89 87 79 77 77 74 68 65 61 54 52 52 50 49 45 45 45 43 42 42 41 42 48 50
10 12 12 12 12 12 12 11 12 12 12 12 13 11 9 8 8 8 7 8 9 9 9 9 9 9 13 20 21 19 18 18 18 16 14 11 7 7 9 12 15 16 18 23 28 27 28 30 30 39 50 59 65 63 64 66 63 72 84 88 89 90 91 89 87 85 79 78 78 74 70 68 64 54 50 52 49 49 45 41 44 43 43 43 40 43 49 45
10 11 12 12 12 12 11 11 11 11 11 11 12 11 9 8 8 8 8 9 9 9 9 9 8 9 14 19 17 17 17 18 19 17 15 13 9 8 9 11 14 15 17 23 29 29 28 27 28 39 50 58 66 65 63 64 60 68 81 85 89 92 91 89 87 85 81 80 80 76 71 69 67 56 52 54 50 48 44 40 45 46 45 44 39 44 48 40
10 11 11 11 11 11 10 11 11 10 10 10 11 11 9 8 8 8 9 10 10 10 8 9 9 9 15 19 17 15 15 17 18 17 16 14 11 9 9 9 12 15 18 23 28 29 28 27 29 38 50 58 65 68 64 62 62 65 74 83 87 89 90 88 86 86 83 81 81 78 73 69 70 62 52 53 51 47 44 41 45 48 47 42 40 46 46 40
10 11 11 11 11 11 10 10 10 9 9 10 10 10 10 10 9 10 10 10 12 11 10 15 16 12 16 21 19 15 15 18 20 19 17 15 12 10 10 8 10 14 17 21 24 27 30 30 30 34 47 55 58 65 62 61 67 67 69 80 85 86 90 88 86 86 84 81 81 81 78 72 71 65 53 52 52 48 47 44 45 49 48 42 41 45 44 43
9 11 11 11 10 10 10 10 9 9 9 9 10 10 11 11 10 10 9 11 13 12 12 17 19 17 18 18 16 15 16 23 25 22 19 16 15 13 10 8 9 12 16 18 18 22 28 29 29 31 39 48 53 60 60 62 72 71 69 79 83 83 86 87 87 87 84 82 82 82 82 76 72 67 55 51 53 51 51 50 47 48 48 42 40 44 43 43
8 10 11 10 10 9 9 10 9 9 9 9 10 10 12 14 15 13 10 10 13 16 19 19 20 22 22 18 16 15 19 28 29 24 22 19 18 17 12 8 8 11 13 15 16 18 22 26 27 29 34 42 50 57 60 63 68 68 68 76 80 81 85 85 84 84 83 85 85 83 83 79 73 69 57 51 52 50 51 55 53 50 50 44 41 44 43 42
8 10 11 10 10 9 9 10 9 9 9 11 12 13 18 21 22 22 13 9 18 28 30 26 23 23 22 18 18 19 23 30 29 24 25 22 19 18 13 9 9 9 11 14 15 16 19 23 25 28 33 39 44 50 57 60 60 60 65 71 76 79 84 84 81 80 80 85 86 82 81 78 75 72 62 56 54 50 50 55 57 53 51 46 43 45 43 42
8 9 10 10 10 9 9 9 9 10 9 12 15 18 25 24 24 27 18 12 19 24 25 23 21 21 21 19 20 22 24 26 26 27 27 23 21 19 14 12 11 9 10 12 13 15 17 20 23 26 31 38 45 48 52 56 55 56 62 66 70 76 80 80 79 80 78 82 84 81 80 81 82 79 70 62 56 51 50 53 57 55 51 47 44 45 44 43
8 9 10 9 9 9 9 9 9 10 9 11 14 19 27 23 20 24 20 17 19 16 17 18 18 21 24 23 20 20 21 22 25 28 27 25 23 21 17 15 12 10 9 10 12 15 15 18 21 23 27 35 45 50 51 54 53 52 56 62 67 73 78 78 78 80 78 80 85 84 82 84 87 86 79 71 62 57 52 51 54 54 51 47 43 46 46 44
8 9 9 9 9 8 8 9 9 10 10 11 12 18 25 20 15 19 19 21 23 16 13 14 14 19 22 21 19 18 21 23 26 27 27 26 24 22 20 17 14 11 8 9 12 14 14 15 17 21 27 33 43 49 49 51 52 51 52 56 63 70 74 76 79 80 80 83 89 89 83 84 89 87 83 79 73 71 63 54 54 53 53 49 44 50 51 47
8 8 9 9 9 9 9 9 10 10 11 12 14 17 21 19 15 18 20 25 29 17 10 11 11 15 17 18 18 16 20 24 26 28 25 24 25 24 23 18 14 12 10 9 11 13 14 13 14 18 25 33 42 46 45 47 48 48 48 50 55 62 67 73 77 81 84 85 89 89 84 84 88 87 86 81 76 78 72 60 56 55 55 50 45 51 53 50
8 7 9 10 10 10 11 11 12 13 12 15 17 15 18 19 16 19 20 25 29 18 11 11 10 16 18 17 17 16 23 29 28 28 24 23 26 25 25 21 17 15 12 11 11 12 13 13 14 16 21 32 41 43 43 43 43 44 44 46 53 56 59 65 72 79 83 83 84 85 87 88 87 86 87 83 76 79 77 65 58 57 56 52 49 52 53 52
7 7 9 11 12 12 13 14 17 17 16 18 19 16 18 19 17 19 22 25 25 17 13 9 10 21 19 15 17 16 24 31 30 30 24 21 25 24 24 22 20 20 15 11 11 10 12 14 16 16 20 29 39 43 43 41 40 41 40 44 54 55 52 58 69 79 86 88 85 82 88 93 90 87 87 84 79 78 78 73 65 57 54 53 53 56 55 53
7 8 11 12 13 15 16 17 21 21 22 21 20 20 22 23 21 21 29 34 28 19 17 12 12 20 16 14 17 16 24 30 30 33 25 20 25 24 23 20 18 21 18 13 11 10 10 12 18 20 21 27 35 38 40 40 39 38 40 45 51 54 53 56 64 75 84 90 86 81 87 94 93 91 88 85 81 77 77 78 71 61 55 53 54 56 56 54
8 9 12 13 14 17 18 20 23 23 25 23 20 23 27 28 28 31 42 45 34 24 21 17 17 20 17 17 18 23 34 35 32 32 24 21 24 24 24 21 17 19 18 15 12 10 10 13 20 22 22 29 38 37 35 37 39 39 41 45 47 52 54 55 61 69 74 82 86 81 83 91 93 89 86 86 85 81 79 78 74 67 59 55 54 55 55 55
8 9 13 14 14 18 19 20 21 20 22 23 23 26 28 30 33 40 53 48 32 25 22 18 17 16 16 18 19 25 35 36 35 31 23 22 25 25 26 23 19 18 18 18 15 11 10 14 22 26 26 31 38 38 35 34 38 41 43 42 43 49 53 55 62 69 70 77 87 84 80 87 92 87 84 87 87 84 82 78 75 69 61 56 55 56 55 54
8 10 14 15 16 19 19 19 19 17 19 21 23 26 29 36 41 49 58 47 29 25 21 19 17 14 15 17 20 25 27 30 34 31 24 23 25 25 26 25 23 19 19 21 19 16 15 18 27 33 31 29 31 36 38 37 39 40 43 41 39 46 52 55 62 68 71 76 81 81 79 83 87 87 87 88 86 84 81 75 70 68 64 58 55 56 55 53
9 10 13 15 17 19 19 20 20 19 20 21 23 27 33 43 48 55 56 38 26 25 19 18 19 17 17 17 20 23 25 29 32 32 30 26 25 25 25 27 24 21 23 26 22 23 25 26 31 34 31 27 26 28 32 38 41 41 44 44 40 44 49 53 59 64 70 72 68 69 75 77 79 84 84 81 79 78 78 74 67 67 65 59 57 56 53 53
8 11 13 15 17 19 20 20 19 20 21 22 25 31 39 47 49 55 46 25 25 29 23 22 21 18 19 22 24 21 23 30 30 33 34 27 25 26 25 27 24 21 27 30 25 25 29 29 28 28 26 24 21 20 22 30 38 40 43 43 39 42 47 52 60 63 63 64 60 61 70 73 73 78 78 73 71 73 76 76 70 68 67 62 59 55 52 53
8 11 13 14 17 19 20 19 18 20 22 23 28 35 47 53 49 46 36 24 29 30 27 29 24 20 24 29 32 27 26 31 26 27 32 27 24 24 24 29 29 24 27 30 25 24 28 31 29 25 22 20 19 19 18 21 30 38 43 43 39 42 48 50 58 62 57 54 54 56 67 73 70 70 72 70 70 70 73 76 74 70 66 63 62 57 53 53
8 10 14 14 17 19 20 18 17 20 22 24 29 39 53 58 45 35 29 27 31 26 25 30 26 26 32 34 36 33 32 33 25 21 26 26 24 22 23 29 30 28 30 32 29 27 27 29 29 26 20 18 18 18 18 18 26 33 37 39 40 44 49 48 50 55 53 53 57 57 62 69 70 67 68 68 67 68 70 74 77 72 66 65 64 61 57 52
8 10 14 15 16 19 20 18 16 19 22 25 33 44 55 54 38 29 28 25 26 24 22 25 23 25 29 32 37 36 35 36 29 23 26 28 28 26 25 26 26 28 33 35 34 30 27 25 27 25 21 18 16 15 17 21 27 28 26 29 33 38 44 46 48 52 51 55 65 66 64 69 73 71 66 63 63 63 67 73 76 74 69 68 67 64 60 54
8 10 14 15 17 19 19 18 16 18 21 25 38 51 53 45 34 29 29 25 23 25 23 20 20 22 25 30 35 35 34 36 32 28 29 31 32 32 31 29 26 28 32 34 34 31 27 24 24 25 24 21 16 13 14 17 22 23 20 20 23 28 36 40 42 49 54 56 63 71 73 70 71 70 65 62 63 62 65 70 72 73 71 70 69 67 64 58
8 10 14 15 16 19 21 20 18 19 21 25 42 55 49 36 28 23 23 22 22 25 24 23 22 23 24 26 29 32 33 31 30 32 32 31 33 34 34 34 31 30 32 33 34 32 28 24 23 26 26 23 19 15 12 11 15 19 18 15 16 21 31 38 38 41 49 52 56 65 74 71 68 69 64 62 66 64 64 69 71 73 72 71 69 66 67 64
10 12 14 16 18 21 22 20 20 21 20 26 42 48 39 32 25 18 16 16 19 22 24 27 29 27 26 26 26 30 31 28 26 30 32 33 34 33 34 37 34 30 32 33 33 32 30 27 25 26 27 25 22 17 13 10 11 17 18 16 17 17 24 35 39 39 42 47 50 57 65 68 67 71 69 63 65 65 63 65 68 72 73 72 70 66 68 69
12 14 16 21 25 23 21 20 20 19 20 31 44 38 28 28 24 16 13 13 18 24 26 30 32 28 28 30 28 26 26 25 24 28 32 33 33 33 34 37 35 31 29 29 31 31 30 29 27 26 27 27 24 18 15 12 9 13 18 19 21 20 23 30 34 37 39 42 49 53 59 62 60 65 69 66 65 64 62 62 63 67 71 72 72 70 69 70
11 17 23 26 25 21 18 19 19 18 21 36 49 42 30 27 21 14 12 14 20 27 29 31 30 28 31 31 28 24 21 22 24 27 32 32 33 34 35 35 35 32 29 27 30 31 29 31 30 27 27 28 24 19 16 14 9 10 15 18 19 21 26 29 29 31 32 36 45 47 53 63 63 61 64 65 66 64 63 62 60 62 67 69 72 71 68 69
14 23 33 33 25 20 18 18 18 20 26 37 47 43 32 28 23 15 12 15 22 26 30 31 28 28 31 30 26 24 22 25 26 27 31 33 34 35 34 32 32 31 29 26 28 28 28 30 31 29 27 26 25 21 18 15 12 10 12 16 18 19 23 27 29 32 32 33 40 42 50 64 65 62 64 63 63 63 62 61 59 59 62 64 68 68 66 67
19 27 40 39 28 22 19 16 19 26 33 40 43 35 26 24 23 17 13 14 18 22 26 29 30 30 30 29 29 27 25 28 29 29 32 32 32 35 33 30 30 30 29 27 24 25 26 30 32 31 28 25 24 23 20 17 15 14 10 11 17 20 22 24 26 31 33 34 37 40 51 62 61 62 67 62 59 61 63 62 58 57 59 61 64 66 67 69
27 36 47 43 29 23 19 19 26 33 36 39 39 31 21 16 17 20 20 20 21 24 26 27 31 34 32 31 30 28 27 29 31 33 35 33 34 37 34 32 30 27 27 28 27 25 27 29 30 31 29 27 26 25 23 19 16 16 13 11 14 16 20 24 25 26 28 31 34 34 44 59 61 60 64 62 59 60 62 63 58 56 60 62 64 67 69 70
31 42 48 42 30 23 20 23 32 35 33 34 35 30 20 14 17 20 22 24 25 26 27 29 31 33 34 34 32 30 29 31 33 35 36 37 38 37 33 32 30 26 28 32 33 29 26 26 28 30 31 31 29 27 25 21 16 15 16 16 15 14 15 18 22 25 24 27 30 29 41 61 63 58 61 61 61 60 60 61 58 56 58 61 64 66 67 68
31 39 45 41 29 21 21 27 34 37 37 34 32 28 20 14 18 20 20 23 25 22 24 30 30 29 32 33 33 34 33 33 35 35 35 38 39 35 33 31 28 29 32 32 30 29 29 29 29 30 33 33 31 28 25 22 18 16 19 20 20 18 15 14 19 23 24 25 26 31 48 63 60 61 66 63 61 65 65 64 61 57 56 58 61 62 63 64
35 41 44 38 26 19 23 28 32 38 42 35 28 27 23 18 19 19 18 20 20 18 21 27 27 28 34 35 32 34 35 34 35 36 36 38 38 34 32 30 28 30 33 29 25 28 34 35 33 31 35 38 37 34 31 28 25 22 21 23 25 22 18 17 18 20 23 24 24 31 48 58 56 60 65 62 61 67 70 71 69 65 62 60 59 60 62 63
39 42 40 37 30 21 22 26 27 32 38 34 28 26 27 28 25 17 15 17 18 17 20 25 23 24 32 33 31 33 34 34 36 38 37 38 38 35 31 28 26 25 26 25 24 27 32 34 34 33 36 39 41 39 34 32 32 29 25 23 23 22 20 20 19 20 23 24 26 34 44 51 55 57 59 60 60 63 68 72 72 71 68 64 60 60 62 63
36 39 38 41 39 27 25 30 29 29 33 33 31 27 26 32 29 16 13 17 18 17 18 20 20 22 27 29 31 35 36 35 36 38 39 38 38 36 30 25 24 24 22 20 21 23 28 31 34 34 32 32 37 39 35 34 36 35 31 25 22 21 22 23 22 22 24 27 33 40 42 47 54 55 58 61 58 61 67 68 69 72 70 67 67 65 64 65
35 41 41 43 44 36 34 37 35 34 34 32 33 30 28 29 27 21 20 18 17 17 18 22 23 22 25 27 30 35 38 37 36 36 38 39 37 36 32 27 30 29 22 21 25 26 27 31 34 34 32 30 34 38 37 36 36 35 33 31 27 25 23 22 21 21 23 28 33 36 41 49 51 50 56 59 59 64 68 64 67 72 70 70 73 73 73 73
37 45 44 42 45 41 38 38 36 36 36 34 32 28 27 28 27 26 24 20 20 19 18 24 27 23 24 26 28 36 41 40 39 37 38 39 39 39 37 35 36 32 26 30 36 32 29 30 30 32 34 32 33 38 37 36 37 36 36 34 33 32 28 25 27 28 30 33 34 37 48 56 54 51 54 57 60 65 65 62 66 70 68 69 71 71 74 75
39 45 44 43 43 40 37 36 34 32 34 34 31 27 27 28 29 29 24 20 26 26 17 20 27 24 26 28 27 33 39 38 39 40 38 38 41 40 41 42 41 34 30 34 37 34 32 32 28 27 32 33 33 36 36 37 38 37 38 37 35 37 38 37 39 41 43 42 40 45 55 59 59 59 57 56 59 60 59 62 67 69 71 73 70 68 71 75
36 40 43 43 42 39 37 36 32 29 31 32 31 29 28 27 27 28 24 18 22 26 22 24 27 23 24 27 26 30 35 35 38 42 38 35 37 40 43 45 43 38 35 34 35 34 33 34 31 27 30 33 32 32 35 37 38 39 43 42 40 42 43 43 46 49 50 49 48 53 57 56 59 62 60 60 62 58 57 59 62 65 70 72 69 66 71 76
33 36 39 41 42 41 39 38 34 33 35 36 36 34 31 30 28 26 26 23 19 20 21 23 24 22 25 29 28 29 31 29 30 34 33 31 32 34 36 37 34 33 34 35 38 38 35 34 33 31 31 32 33 34 36 36 38 44 49 45 43 47 46 45 48 51 51 52 55 58 58 55 57 61 64 67 64 59 59 59 58 61 64 65 64 62 65 69